Hourly Data Report for June 01, 2018

TORONTO CITY
ONTARIO
Current Station Operator: ECCC - MSC

43°40'00.000" N
79°24'00.000" W
112.50 m
6158355
71508
XTO

Download Data

Hourly Data (June 2018)
Hourly Data Report for June 1, 2018
TIME
LST
Temp Definition
°C
Dew Point Definition
°C
Rel Hum Definition
%
Precip. Amount Definition
mm

Wind Dir Definition
10's deg

Wind Spd Definition
km/h
Visibility Definition
km
Stn Press Definition
kPa
Hmdx Definition


Wind Chill Definition


Weather Definition


00:00 20.5 17.1 81 0.0 LegendMM LegendMM   99.33 26   LegendNANA
01:00 20.5 17.2 82 0.0 LegendMM LegendMM   99.34 26   LegendNANA
02:00 20.6 17.3 82 0.0 LegendMM LegendMM   99.28 26   LegendNANA
03:00 20.7 17.1 80 0.0 LegendMM LegendMM   99.29 26   LegendNANA
04:00 20.4 16.9 81 0.0 LegendMM LegendMM   99.31 26   LegendNANA
05:00 19.6 17.0 85 0.0 LegendMM LegendMM   99.29     LegendNANA
06:00 20.5 17.3 82 0.0 LegendMM LegendMM   99.34 26   LegendNANA
07:00 21.7 17.3 76 0.0 LegendMM LegendMM   99.43 27   LegendNANA
08:00 22.4 18.0 76 0.0 LegendMM LegendMM   99.44 28   LegendNANA
09:00 24.7 18.3 68 0.0 LegendMM LegendMM   99.47 31   LegendNANA
10:00 25.4 18.8 67 0.0 LegendMM LegendMM   99.50 32   LegendNANA
11:00 25.8 18.9 66 0.0 LegendMM LegendMM   99.53 32   LegendNANA
12:00 27.0 18.3 59 0.0 LegendMM LegendMM   99.53 33   LegendNANA
13:00 26.5 18.2 60 0.0 LegendMM LegendMM   99.49 33   LegendNANA
14:00 26.5 16.3 53 0.0 LegendMM LegendMM   99.50 31   LegendNANA
15:00 27.5 16.3 50 0.0 LegendMM LegendMM   99.48 32   LegendNANA
16:00 28.0 16.1 49 0.0 LegendMM LegendMM   99.46 33   LegendNANA
17:00 26.4 15.6 52 0.0 LegendMM LegendMM   99.51 31   LegendNANA
18:00 24.8 15.5 56 0.0 LegendMM LegendMM   99.58 29   LegendNANA
19:00 23.3 15.5 62 0.0 LegendMM LegendMM   99.65 28   LegendNANA
20:00 21.5 14.5 64 0.0 LegendMM LegendMM   99.68 25   LegendNANA
21:00 20.9 14.1 65 0.0 LegendMM LegendMM   99.73     LegendNANA
22:00 19.0 12.4 66 0.0 LegendMM LegendMM   99.79     LegendNANA
23:00 18.3 12.6 69 0.0 LegendMM LegendMM   99.81     LegendNANA

Notes on Data Quality.

Legend

  • E = Estimated
  • M = Missing
  • NA = Not Available*
  • [empty] = Indicates an unobserved value
Date modified: